Accueil
METAR-TAF:

METAR-TAF

Aéroports :

Monbetsu, Japon

latitude: 44-15N, longitude: 143-32E, altitude: 6 m

Observation

Le bulletin a été fait il y a 8 heures et 49 minutes, à 07:00 UTC
Vent 5 kt de ouest
Température 2°C
Humidité 80%
Pression 1015 hPa
Visibilité 10 km ou plus
Quelques nuages à une hauteur de 2000 ft
Nuages épars à une hauteur de 3000 ft
Nuages fragmentés à une hauteur de 4000 ft
faibles averses de pluie, neige

METAR: RJEB 200700Z 28005KT 9999 -SHRASN FEW020 SCT030 BKN040 02/M01 Q1015

Heure: 00:49 (15:49 UTC)


TAF: absent

Observations et prévisions météorologiques de plus de 4000 aéroports (messages METAR et TAF).

Les stations disponibles sont représentées par des disques jaunes et rouges sur la carte.

Passer la souris dessus pour voir le nom de la station.

Cliquer dessus pour voir les observations et prévisions météorologiques.

Pour changer de carte: cliquez sur les boutons verts avec une croix noire pour zoomer, sur le bouton vert avec un tiret pour effectuer un zoom arrière, ou sur les flèches vertes pour les cartes adjacentes.


METAR-TAF: